{"data":{"norad_id":46172,"intl_designator":"2020-057BH","name":"STARLINK-1635","alt_names":[],"object_type":"PAYLOAD","status":"ACTIVE","operator":null,"country":"US","launch_date":"2020-08-18","launch_site_code":"AFETR","launch_vehicle":null,"mission":null,"orbit_class":"UNKNOWN","rcs_meters":null,"size_class":null,"mass_kg":null,"dimensions":null,"purposes":["comms"],"wikipedia_slug":null,"has_3d_model":false,"image_url":null,"decayed_at":null,"tle_current":{"epoch":"2026-07-07T01:46:02.839872Z","epoch_age_seconds":6538808,"freshness":"OLD","line1":"1 46172U 20057BH  26188.07364398  .07365536  12319-4  68341-3 0  9999","line2":"2 46172  53.0206  19.8385 0013135 277.1947  82.7605 16.37633600327007","mean_motion":16.376336,"eccentricity":0.0013135,"inclination_deg":53.0206,"raan_deg":19.8385,"arg_perigee_deg":277.1947,"mean_anomaly_deg":82.7605,"bstar":0.00068341,"rev_number":32700,"period_min":87.931757140303,"perigee_km":163.50129291832,"apogee_km":180.70877874645,"semimajor_km":6550.2420358324,"source":"CELESTRAK","updated_at":"2026-07-07T09:00:47.606786Z"}}}